Location: Burgberg
(50.1428°N, 11.0671°E)
Time: 10:07:20
(UTC+00:00)

STARLINK-23 - Pass Details

Date: 26 January 2020
Orbit: 528 x 531 km, 53.0° (Epoch: 17 February)

Event Time Altitude Azimuth Distance (km) Brightness Sun altitude
Exits shadow 03:46:52 25° 83° (E) 1,081 5.7 -30.5°
Drops below altitude 10° 03:48:45 10° 73° (ENE) 1,775 7.1 -30.2°
Enters shadow 04:47:15 -66° 252° (WSW) 12,178 10.4 -20.8°
Maximum altitude 05:23:56 63° 349° (N) 593 3.6 -15.0°
